SKW4906 KPHX-KTUS

Flight info

Callsign SKW4906
Flight time 0h 27m
Altitude 19000
Route STRRM1 STRRM BASER DINGO DINGO6
Aircraft E75L/M-SDE3GILORVW/S

Departure

Time 2026-04-24 03:16
Airport Phoenix Sky Harbor International Airport (KPHX)

Arrival

Time 2026-04-24 03:43
Airport Tucson International Airport (KTUS)
Time Latitude Longitude Altitude Speed Heading
2026-04-24 03:01 33.43668 -111.99365 1122 ft 0 kts 241°
2026-04-24 03:09 33.43676 -111.99348 1122 ft 2 kts 240°
2026-04-24 03:09 33.43684 -111.99331 1112 ft 2 kts 239°
2026-04-24 03:10 33.43695 -111.99316 1115 ft 2 kts 210°
2026-04-24 03:10 33.43711 -111.99310 1114 ft 2 kts 189°
2026-04-24 03:10 33.43720 -111.99309 1118 ft 0 kts 181°
2026-04-24 03:12 33.43719 -111.99309 1118 ft 0 kts 179°
2026-04-24 03:12 33.43701 -111.99272 1122 ft 11 kts 98°
2026-04-24 03:13 33.43637 -111.99226 1120 ft 13 kts 181°
2026-04-24 03:13 33.43533 -111.99226 1118 ft 17 kts 181°
2026-04-24 03:13 33.43425 -111.99244 1122 ft 15 kts 192°
2026-04-24 03:13 33.43319 -111.99246 1118 ft 14 kts 180°
2026-04-24 03:14 33.43239 -111.99248 1120 ft 12 kts 183°
2026-04-24 03:14 33.43168 -111.99306 1125 ft 13 kts 231°
2026-04-24 03:14 33.43107 -111.99383 1131 ft 12 kts 245°
2026-04-24 03:14 33.43103 -111.99428 1130 ft 0 kts 272°
2026-04-24 03:15 33.43104 -111.99597 1130 ft 57 kts 270°
2026-04-24 03:15 33.43104 -112.00397 1129 ft 133 kts 270°
2026-04-24 03:15 33.43106 -112.01696 1477 ft 174 kts 268°
2026-04-24 03:16 33.43095 -112.03242 2172 ft 200 kts 268°
2026-04-24 03:16 33.43081 -112.04848 3461 ft 183 kts 269°
2026-04-24 03:16 33.43019 -112.06387 4322 ft 191 kts 261°
2026-04-24 03:16 33.42612 -112.07968 5050 ft 206 kts 250°
2026-04-24 03:17 33.42075 -112.09685 5668 ft 232 kts 250°
2026-04-24 03:17 33.41489 -112.11575 6427 ft 251 kts 251°
2026-04-24 03:17 33.40862 -112.13589 7210 ft 263 kts 251°
2026-04-24 03:17 33.40162 -112.15636 8158 ft 270 kts 243°
2026-04-24 03:18 33.38842 -112.17268 9151 ft 281 kts 215°
2026-04-24 03:18 33.36975 -112.18078 10149 ft 293 kts 192°
2026-04-24 03:18 33.34866 -112.17883 10789 ft 318 kts 168°
2026-04-24 03:18 33.32728 -112.17024 11563 ft 328 kts 164°
2026-04-24 03:19 33.30591 -112.16089 12430 ft 334 kts 164°
2026-04-24 03:19 33.28440 -112.14965 13384 ft 341 kts 158°
2026-04-24 03:19 33.26312 -112.13648 14280 ft 347 kts 157°
2026-04-24 03:19 33.24167 -112.12274 15143 ft 353 kts 157°
2026-04-24 03:20 33.21982 -112.10871 16037 ft 359 kts 157°
2026-04-24 03:20 33.19766 -112.09446 16844 ft 365 kts 157°
2026-04-24 03:20 33.17510 -112.07991 17659 ft 370 kts 157°
2026-04-24 03:20 33.15230 -112.06520 18408 ft 375 kts 157°
2026-04-24 03:21 33.12907 -112.05021 18872 ft 385 kts 157°
2026-04-24 03:21 33.10485 -112.03463 18909 ft 402 kts 157°
2026-04-24 03:21 33.08001 -112.01855 18906 ft 409 kts 157°
2026-04-24 03:21 33.05487 -112.00231 18909 ft 413 kts 156°
2026-04-24 03:22 33.02957 -111.98594 18937 ft 415 kts 156°
2026-04-24 03:22 33.00413 -111.96954 18942 ft 416 kts 156°
2026-04-24 03:22 32.97836 -111.95390 18920 ft 414 kts 162°
2026-04-24 03:22 32.95213 -111.94099 18931 ft 414 kts 163°
2026-04-24 03:23 32.92554 -111.92769 18930 ft 414 kts 162°
2026-04-24 03:23 32.89899 -111.91432 18932 ft 414 kts 162°
2026-04-24 03:23 32.87351 -111.89774 18921 ft 421 kts 152°
2026-04-24 03:23 32.84940 -111.87791 18921 ft 422 kts 149°
2026-04-24 03:24 32.82519 -111.85809 18915 ft 422 kts 150°
2026-04-24 03:24 32.80101 -111.83825 18904 ft 422 kts 150°
2026-04-24 03:24 32.77689 -111.81841 18897 ft 422 kts 150°
2026-04-24 03:24 32.75274 -111.79848 18905 ft 422 kts 149°
2026-04-24 03:25 32.72862 -111.77856 18898 ft 422 kts 149°
2026-04-24 03:25 32.70447 -111.75861 18892 ft 423 kts 149°
2026-04-24 03:25 32.68036 -111.73866 18881 ft 423 kts 150°
2026-04-24 03:25 32.65623 -111.71873 18875 ft 422 kts 149°
2026-04-24 03:26 32.63211 -111.69880 18871 ft 423 kts 149°
2026-04-24 03:26 32.60799 -111.67887 18867 ft 423 kts 149°
2026-04-24 03:26 32.58388 -111.65896 18866 ft 422 kts 150°
2026-04-24 03:26 32.55982 -111.63894 18865 ft 423 kts 147°
2026-04-24 03:27 32.53888 -111.61419 18909 ft 428 kts 131°
2026-04-24 03:27 32.52113 -111.58557 18896 ft 432 kts 128°
2026-04-24 03:27 32.50345 -111.55677 18916 ft 431 kts 129°
2026-04-24 03:27 32.48381 -111.53030 18932 ft 427 kts 140°
2026-04-24 03:28 32.46136 -111.50752 18933 ft 425 kts 144°
2026-04-24 03:28 32.43875 -111.48487 18940 ft 425 kts 143°
2026-04-24 03:28 32.41640 -111.46200 18922 ft 425 kts 143°
2026-04-24 03:28 32.39393 -111.43936 18869 ft 422 kts 143°
2026-04-24 03:29 32.37210 -111.41727 18574 ft 416 kts 143°
2026-04-24 03:29 32.34996 -111.39486 18223 ft 412 kts 143°
2026-04-24 03:29 32.32829 -111.37282 17686 ft 407 kts 142°
2026-04-24 03:29 32.30730 -111.35153 17227 ft 401 kts 143°
2026-04-24 03:30 32.28627 -111.33022 16798 ft 396 kts 143°
2026-04-24 03:30 32.26539 -111.30909 16370 ft 394 kts 143°
2026-04-24 03:30 32.24468 -111.28809 15983 ft 391 kts 143°
2026-04-24 03:30 32.22407 -111.26724 15537 ft 390 kts 143°
2026-04-24 03:31 32.20357 -111.24648 15119 ft 387 kts 143°
2026-04-24 03:31 32.18322 -111.22588 14689 ft 382 kts 143°
2026-04-24 03:31 32.16349 -111.20588 14255 ft 365 kts 143°
2026-04-24 03:31 32.14461 -111.18677 13872 ft 350 kts 143°
2026-04-24 03:32 32.13254 -111.17456 13607 ft 341 kts 144°
2026-04-24 03:32 32.11487 -111.15672 13238 ft 328 kts 143°
2026-04-24 03:32 32.09774 -111.13946 12924 ft 323 kts 143°
2026-04-24 03:32 32.08069 -111.12228 12537 ft 321 kts 143°
2026-04-24 03:33 32.06368 -111.10515 12193 ft 322 kts 143°
2026-04-24 03:33 32.04669 -111.08801 11833 ft 321 kts 142°
2026-04-24 03:33 32.02976 -111.07096 11459 ft 318 kts 142°
2026-04-24 03:33 32.01300 -111.05407 11121 ft 315 kts 142°
2026-04-24 03:34 31.99647 -111.03742 10789 ft 311 kts 142°
2026-04-24 03:34 31.98011 -111.02095 10430 ft 305 kts 142°
2026-04-24 03:34 31.96430 -111.00504 10079 ft 293 kts 142°
2026-04-24 03:34 31.94915 -110.98979 9758 ft 280 kts 142°
2026-04-24 03:35 31.93463 -110.97519 9442 ft 269 kts 142°
2026-04-24 03:35 31.92106 -110.96059 9149 ft 260 kts 137°
2026-04-24 03:35 31.90860 -110.94557 8877 ft 254 kts 137°
2026-04-24 03:35 31.89624 -110.93091 8621 ft 251 kts 137°
2026-04-24 03:36 31.88397 -110.91636 8347 ft 250 kts 134°
2026-04-24 03:36 31.87582 -110.89836 7949 ft 255 kts 98°
2026-04-24 03:36 31.87763 -110.87814 7749 ft 248 kts 68°
2026-04-24 03:36 31.88727 -110.86166 7527 ft 243 kts 44°
2026-04-24 03:37 31.89943 -110.84810 7223 ft 240 kts 41°
2026-04-24 03:37 31.91133 -110.83463 6928 ft 235 kts 43°
2026-04-24 03:37 31.92266 -110.82121 6706 ft 226 kts 44°
2026-04-24 03:37 31.93349 -110.80824 6482 ft 220 kts 44°
2026-04-24 03:38 31.94428 -110.79551 6221 ft 218 kts 42°
2026-04-24 03:38 31.95566 -110.78446 5951 ft 208 kts 22°
2026-04-24 03:38 31.96915 -110.78132 5779 ft 193 kts 353°
2026-04-24 03:38 31.98180 -110.78541 5627 ft 188 kts 328°
2026-04-24 03:39 31.99156 -110.79497 5552 ft 178 kts 314°
2026-04-24 03:39 32.00058 -110.80547 5356 ft 186 kts 314°
2026-04-24 03:39 32.00983 -110.81644 5108 ft 190 kts 312°
2026-04-24 03:39 32.01922 -110.82730 4877 ft 188 kts 313°
2026-04-24 03:40 32.02854 -110.83788 4626 ft 188 kts 314°
2026-04-24 03:40 32.03759 -110.84809 4378 ft 173 kts 314°
2026-04-24 03:40 32.04591 -110.85764 4146 ft 162 kts 313°
2026-04-24 03:40 32.05373 -110.86673 3973 ft 156 kts 314°
2026-04-24 03:41 32.06167 -110.87555 3788 ft 154 kts 315°
2026-04-24 03:41 32.06909 -110.88433 3644 ft 150 kts 314°
2026-04-24 03:41 32.07662 -110.89340 3462 ft 156 kts 314°
2026-04-24 03:41 32.08442 -110.90209 3242 ft 154 kts 315°
2026-04-24 03:42 32.09191 -110.91087 3018 ft 152 kts 311°
2026-04-24 03:42 32.09930 -110.91974 2797 ft 152 kts 314°
2026-04-24 03:42 32.10677 -110.92843 2639 ft 144 kts 314°
2026-04-24 03:42 32.11304 -110.93580 2612 ft 106 kts 315°
2026-04-24 03:43 32.11684 -110.94023 2595 ft 42 kts 313°
2026-04-24 03:43 32.11828 -110.94098 2591 ft 21 kts 359°
2026-04-24 03:43 32.11960 -110.94105 2586 ft 10 kts 326°
2026-04-24 03:43 32.12008 -110.94115 2586 ft 5 kts 30°
2026-04-24 03:44 32.12038 -110.94093 2588 ft 7 kts
2026-04-24 03:44 32.12104 -110.94086 2591 ft 12 kts 11°
2026-04-24 03:44 32.12173 -110.94057 2591 ft 2 kts 65°
2026-04-24 03:44 32.12168 -110.94050 2588 ft 3 kts 147°
2026-04-24 03:45 32.12145 -110.94023 2591 ft 1 kts 128°
2026-04-24 03:45 32.12141 -110.94018 2591 ft 0 kts 129°